Location: Newark
(45.9456°N, 15.4064°E)
Time: 14:17:01
(UTC+00:00)

SR - Pass Details

Date: 27 January 2020
Orbit: 575 x 880 km, 66.7° (Epoch: 22 February)

Event Time Altitude Azimuth Distance (km) Brightness Sun altitude
Rises 22:22:56 0° 254° (WSW) 3,449 - -60.7°
Reaches altitude 10° 22:25:52 10° 268° (W) 2,531 - -60.9°
Maximum altitude 22:30:40 25° 322° (NW) 1,708 - -61.2°
Drops below altitude 10° 22:35:27 10° 16° (NNE) 2,525 - -61.5°
Sets 22:38:24 0° 30° (NNE) 3,440 - -61.6°
